Regional Weather Roundup
Issued by NWS

Home | Current Version | Previous Version | Text Only | Print | Product List | Glossary On
Versions: 1 2 3 4 5 6 7 8 9 10 11 12 13 14 15 16 17 18 19 20 21 22 23 24 25 26 27 28 29 30 31 32 33 34 35 36 37 38 39 40 41 42 43 44 45 46 47 48 49 50
000
ASUS43 KDTX 050010
RWRMI
MICHIGAN HOURLY REGIONAL WEATHER ROUNDUP
NATIONAL WEATHER SERVICE DETROIT/PONTIAC MI
700 PM EST WED MAR 04 2015

NOTE: "FAIR" INDICATES FEW OR NO CLOUDS BELOW 12,000 FEET WITH NO
SIGNIFICANT WEATHER AND/OR OBSTRUCTION TO VISIBILITY.

MIZ047>049-052>055-059>063-066>070-074>076-081>083-050100-
SOUTHEAST LOWER MICHIGAN

CITY           SKY/WX    TMP DP  RH WIND       PRES   REMARKS
ADRIAN         CLOUDY    22   8  55 NW10G24   30.09R WCI  11
6HR MIN TEMP:  22; 6HR MAX TEMP:  32;

ALMA           PTCLDY    16  -1  47 W13       30.09R WCI   2
ANN ARBOR      CLOUDY    22   4  46 NW17      30.07R WCI   8
BAD AXE        PTCLDY    20   6  54 NW13G21   30.00R WCI   7
6HR MIN TEMP:  20; 6HR MAX TEMP:  28;

CARO           PTCLDY    19   6  55 W16       30.03R WCI   5
DETROIT CITY   CLOUDY    28  10  46 W15G21    30.03R WCI  16
6HR MIN TEMP:  28; 6HR MAX TEMP:  37;

DETROIT        CLOUDY    25   7  46 W20G26    30.05R WCI  11
6HR MIN TEMP:  25; 6HR MAX TEMP:  35;

FLINT          MOCLDY    20   4  50 W18       30.07R WCI   5
6HR MIN TEMP:  20; 6HR MAX TEMP:  30;

GROSSE ILE     CLOUDY    27   9  46 W15       30.03R WCI  15
HILLSDALE      CLOUDY    19   6  57 NW16G24   30.06R WCI   4
6HR MIN TEMP:  19; 6HR MAX TEMP:  29;

HOWELL         MOCLDY    19   5  56 W17       30.06R WCI   3
6HR MIN TEMP:  19; 6HR MAX TEMP:  30;


CITY           SKY/WX    TMP DP  RH WIND       PRES   REMARKS
JACKSON        MOCLDY    18   4  54 NW18G26   30.08R WCI   2
6HR MIN TEMP:  18; 6HR MAX TEMP:  29;

LAMBERTVILLE   CLOUDY    28  12  50 W8G17     30.08R WCI  20
LANSING        PTCLDY    17   3  54 W14       30.10R WCI   3
6HR MIN TEMP:  17; 6HR MAX TEMP:  27;

LAPEER         FAIR      21   5  50 W14G22    30.03R WCI   8
MASON          MOCLDY    18   5  57 W15       30.08R WCI   3
MONROE         CLOUDY    27  10  50 NW17      30.05R WCI  14
MT. CLEMENS    MOCLDY    27  11  51 NW18      29.98R WCI  14
6HR MIN TEMP:  27; 6HR MAX TEMP:  35;

PONTIAC        MOCLDY    22   7  52 NW16      30.03R WCI   8
6HR MIN TEMP:  22; 6HR MAX TEMP:  31;

PORT HOPE        N/A     22   5  48 W9        29.99R WCI  12
6HR MIN TEMP:  22; 6HR MAX TEMP:  29;

PORT HURON     CLOUDY    25  12  58 W12G21    30.01R WCI  14
TRI CITIES     FAIR      19   0  43 W16G29    30.08R WCI   4
6HR MIN TEMP:  19; 6HR MAX TEMP:  29;

TROY           CLOUDY    27   9  46 W15G22    30.06R WCI  15
SAGINAW HB     PTCLDY    21   3  45 W20G25    30.07R WCI   6
$$
MIZ043>046-050>051-056>058-064>065-071>073-077>080-050100-
SOUTHWEST LOWER MICHIGAN

CITY           SKY/WX    TMP DP  RH WIND       PRES   REMARKS
BATTLE CREEK   FAIR      18   3  52 NW15      30.11R WCI   4
6HR MIN TEMP:  18; 6HR MAX TEMP:  28;

BENTON HARBOR  MOCLDY    18   4  54 NW8       30.19R WCI   8
6HR MIN TEMP:  18; 6HR MAX TEMP:  22;

BIG RAPIDS     PTCLDY    14  -3  46 NW14G21   30.08R WCI  -1
6HR MIN TEMP:  14; 6HR MAX TEMP:  23;

COLDWATER      MOCLDY    18   6  58 NW14      30.12R WCI   4
6HR MIN TEMP:  18; 6HR MAX TEMP:  28;

FREMONT        MOCLDY    14  -4  44 NW17G28   30.12R WCI  -3
HOLLAND        PTCLDY    18   2  49 NW14      30.17R WCI   4
6HR MIN TEMP:  18; 6HR MAX TEMP:  22; 6HR PCP: TRACE;

GRAND RAPIDS   MOCLDY    16   0  49 NW18G25   30.13R WCI   0
6HR MIN TEMP:  16; 6HR MAX TEMP:  24;

IONIA          FAIR      18   3  53 W9        30.11R WCI   6
KALAMAZOO      MOCLDY    18   3  52 NW12      30.14R WCI   5
6HR MIN TEMP:  18; 6HR MAX TEMP:  25;

LUDINGTON      MOCLDY    16  -3  43 NW10G22   30.15R WCI   3
6HR MIN TEMP:  16; 6HR MAX TEMP:  18;

MARSHALL       MOCLDY    16   3  55 W15G21    30.10R WCI   2
MOUNT PLEASANT CLEAR     16  -3  44 W13G22    30.08R WCI   2
6HR MIN TEMP:  16; 6HR MAX TEMP:  27;

MUSKEGON       MOCLDY    17   0  47 NW12      30.16R WCI   4
6HR MIN TEMP:  17; 6HR MAX TEMP:  20; 6HR PCP: TRACE;

SOUTH HAVEN    FAIR      19   5  54 NW6       30.19R WCI  11
$$
MIZ016>042-050100-
NORTHERN LOWER MICHIGAN

CITY           SKY/WX    TMP DP  RH WIND       PRES   REMARKS
ALPENA         PTCLDY    11   2  67 W8        30.07R WCI  -1
6HR MIN TEMP:  11; 6HR MAX TEMP:  23; 6HR PCP: TRACE;

BEAVER ISLAND  CLEAR      5  -4  67 NW9G17    30.14R WCI  -9
6HR MIN TEMP:   5; 6HR MAX TEMP:  15;

BELLAIRE       PTCLDY    11  -1  59 NW6       30.11R WCI   2
6HR MIN TEMP:  11; 6HR MAX TEMP:  16;

CADILLAC       PTCLDY     9   2  75 W8G17     30.04R WCI  -3
CHARLEVOIX     CLOUDY     7   3  82 CALM      30.15R
FRANKFORT      CLOUDY    15  -1  49 NW15G23   30.13R WCI  -1
GAYLORD        MOCLDY     8  -4  58 W8G20     30.01R WCI  -4
6HR MIN TEMP:   7; 6HR MAX TEMP:  14; 6HR PCP: TRACE;

GRAYLING       CLOUDY    10   2  69 NW12G18   30.04R WCI  -5
6HR MIN TEMP:  10; 6HR MAX TEMP:  17;

HARBOR SPRINGS CLOUDY     7  -1  67 NW9G18    30.11R HAZE    WCI  -6
HOUGHTON LAKE  CLOUDY    10   2  69 NW13      30.04R WCI  -5
6HR MIN TEMP:  10; 6HR MAX TEMP:  20; 6HR PCP: TRACE;

MANISTEE       MOCLDY    16  -4  41 NW16      30.13R WCI   0
OSCODA         MOCLDY    16   2  54 W16G23    30.03R WCI   1
PELLSTON       CLOUDY     7   0  73 N13       30.11R WCI  -9
6HR MIN TEMP:   7; 6HR MAX TEMP:  14; 6HR PCP: TRACE;

ROGERS CITY    LGT SNOW  10   7  87 NW16G22   30.08R VSB 1   WCI  -7
TRAVERSE CITY  LGT SNOW  12   5  73 NW10      30.12R WCI  -1
6HR MIN TEMP:  13; 6HR MAX TEMP:  16; 6HR PCP: TRACE;

$$
MIZ007>008-015-050100-
EASTERN UPPER MICHIGAN

CITY           SKY/WX    TMP DP  RH WIND       PRES   REMARKS
KINROSS        CLEAR      1  -4  78 NW12G21   30.09R WCI -15
6HR MIN TEMP:   1; 6HR MAX TEMP:  12;

MACKINAC ISLAN PTCLDY     5  -4  66 NW13G22   30.10R WCI -11
6HR MIN TEMP:   5; 6HR MAX TEMP:  16;

NEWBERRY       CLOUDY     2  -4  76 W15       30.11R WCI -16
6HR MIN TEMP:   2; 6HR MAX TEMP:  10;

S. S. MARIE    CLEAR      1  -7  68 NW12G24   30.09R WCI -16
6HR MIN TEMP:   1; 6HR MAX TEMP:  10; 6HR PCP: TRACE;

MUNISING         N/A      7  -8  50 NW13G20   30.15R WCI  -9
6HR MIN TEMP:   7; 6HR MAX TEMP:  11;

$$
MIZ004>006-011>014-085-050100-
CENTRAL UPPER MICHIGAN

CITY           SKY/WX    TMP DP  RH WIND       PRES   REMARKS
MANISTIQUE     CLOUDY     5  -1  77 NW9       30.13R WCI  -9
6HR MIN TEMP:   5; 6HR MAX TEMP:  15;

ESCANABA       PTCLDY     9 -11  40 NW12      30.16R WCI  -6
6HR MIN TEMP:   9; 6HR MAX TEMP:  14;

MENOMINEE      CLEAR     10 N/A N/A N8G17     30.15R WCI  -1
6HR MIN TEMP:  10; 6HR MAX TEMP:  16;

SAWYER-GWINN   PTCLDY     3  -9  55 NW10G22   30.09R WCI -12
$$
MIZ001>003-009>011-084-050100-
WESTERN UPPER MICHIGAN

CITY           SKY/WX    TMP DP  RH WIND       PRES   REMARKS
IRON MOUNTAIN  CLEAR      4 -11  50 NW12G21   30.11R WCI -12
6HR MIN TEMP:   4; 6HR MAX TEMP:  11;

HOUGHTON       CLEAR      1  -8  66 NW15      30.11R WCI -18
6HR MIN TEMP:   1; 6HR MAX TEMP:   4; 6HR PCP:  0.05;

COPPER HARBOR    N/A      3  -6  66 N17       30.14R WCI -17
6HR MIN TEMP:   2; 6HR MAX TEMP:   5;

IRONWOOD       CLOUDY     1  -6  71 W13G21    30.15R VSB 1   WCI -16
6HR MIN TEMP:   1; 6HR MAX TEMP:   3;

$$

ABBREVIATIONS USED IN REMARKS
   TC - TEMPERATURE IN CELSIUS
  WCI - WIND CHILL INDEX
   HX - HEAT INDEX
  VSB - VISIBILITY




USA.gov is the U.S. government's official web portal to all federal, state and local government web resources and services.